Weather History for KIMT - November, 2012

Change the Weather History Date:

Wednesday, November 28, 2012

  Actual Average Record
Temperature  
Mean Temperature 24 °F -  
Max Temperature 28 °F 33 °F 54 °F (2006)
Min Temperature 21 °F 15 °F -8 °F (1976)
Degree Days  
Heating Degree Days 40    
Moisture  
Dew Point 14 °F    
Average Humidity 65    
Maximum Humidity 78    
Minimum Humidity 51    
Precipitation  
Precipitation 0.00 in - - ()
Sea Level Pressure  
Sea Level Pressure 30.20 in    
Wind  
Wind Speed 9 mph (West)    
Max Wind Speed 17 mph    
Max Gust Speed 28 mph    
Visibility 10 miles    
Events Snow    
Averages and records for this station are not official NWS values.
T = Trace of Precipitation, MM = Missing Value Source: NWS Daily Summary

Daily Weather History Graph

Daily Weather History Graph

Search for Another Location

Airport or City:

Trip Planner

Search our weather history database for the weather conditions in past years. The results will help you decide how hot, cold, wet, or windy it might be!

Date:

Astronomy

Nov. 28, 2012 Rise Set
Actual Time 7:10 AM CST 4:10 PM CST
Civil Twilight 6:36 AM CST 4:44 PM CST
Nautical Twilight 5:59 AM CST 5:21 PM CST
Astronomical Twilight 5:23 AM CST 5:57 PM CST
Moon 4:25 PM CST (11/28) 7:07 AM CST (11/28)
Length of Visible Light 10h 07m
Length of Day
9h 00m
Full, 100% of the Moon is Illuminated
Nov 28
Full
Dec 6
Last Quarter
Dec 13
New
Dec 19
First Quarter
Dec 28
Full

Hourly Weather History & Observations

Time (CST) Temp. Windchill Dew Point Humidity Pressure Visibility Wind Dir Wind Speed Gust Speed Precip Events Conditions
12:54 AM 25.0 °F 15.5 °F 19.0 °F 78% 30.12 in 10.0 mi West 9.2 mph - N/A   Mostly Cloudy
1:54 AM 26.1 °F 17.6 °F 19.0 °F 75% 30.14 in 10.0 mi West 8.1 mph - N/A   Overcast
2:54 AM 26.1 °F 16.8 °F 19.0 °F 75% 30.14 in 10.0 mi WNW 9.2 mph - N/A   Overcast
3:54 AM 26.1 °F 13.1 °F 14.0 °F 60% 30.16 in 10.0 mi WNW 17.3 mph 27.6 mph N/A   Overcast
4:54 AM 24.1 °F 12.0 °F 14.0 °F 65% 30.19 in 10.0 mi NW 13.8 mph 21.9 mph N/A   Overcast
5:54 AM 21.9 °F 10.4 °F 14.0 °F 72% 30.22 in 10.0 mi NNW 11.5 mph - 0.00 in   Overcast
6:54 AM 21.9 °F 11.0 °F 12.9 °F 68% 30.25 in 10.0 mi NW 10.4 mph - N/A   Overcast
7:54 AM 21.9 °F 13.4 °F 14.0 °F 72% 30.26 in 10.0 mi NW 6.9 mph - N/A   Overcast
8:54 AM 21.9 °F 14.5 °F 15.1 °F 75% 30.27 in 5.0 mi NW 5.8 mph - 0.00 in Snow Light Snow
9:54 AM 23.0 °F 11.1 °F 10.9 °F 60% 30.28 in 10.0 mi NW 12.7 mph - 0.00 in   Mostly Cloudy
10:54 AM 23.0 °F 13.1 °F 10.9 °F 60% 30.28 in 10.0 mi WNW 9.2 mph - N/A   Partly Cloudy
11:54 AM 25.0 °F 16.3 °F 10.9 °F 55% 30.26 in 10.0 mi West 8.1 mph - N/A   Scattered Clouds
12:54 PM 27.0 °F 19.5 °F 12.0 °F 53% 30.25 in 10.0 mi West 6.9 mph - N/A   Scattered Clouds
1:54 PM 27.0 °F 18.0 °F 10.9 °F 51% 30.22 in 10.0 mi SW 9.2 mph - N/A   Clear
2:54 PM 27.0 °F 19.5 °F 10.9 °F 51% 30.22 in 10.0 mi WSW 6.9 mph - N/A   Clear
3:54 PM 26.1 °F 18.4 °F 10.9 °F 53% 30.20 in 10.0 mi SW 6.9 mph - N/A   Clear
4:54 PM 21.9 °F 17.2 °F 10.9 °F 63% 30.20 in 10.0 mi SSW 3.5 mph - N/A   Clear
5:54 PM 21.9 °F 15.7 °F 10.9 °F 63% 30.19 in 10.0 mi SSW 4.6 mph - N/A   Clear
6:54 PM 24.1 °F 18.2 °F 12.0 °F 60% 30.19 in 10.0 mi South 4.6 mph - N/A   Clear
7:54 PM 25.0 °F 18.1 °F 15.1 °F 66% 30.17 in 10.0 mi SW 5.8 mph - N/A   Clear
8:54 PM 26.1 °F 20.5 °F 17.1 °F 69% 30.15 in 10.0 mi WSW 4.6 mph - N/A   Mostly Cloudy
9:54 PM 27.0 °F 21.6 °F 18.0 °F 69% 30.14 in 10.0 mi West 4.6 mph - N/A   Clear
10:54 PM 28.0 °F 21.7 °F 19.0 °F 69% 30.14 in 10.0 mi WSW 5.8 mph - N/A   Clear
11:54 PM 28.0 °F 19.3 °F 19.0 °F 69% 30.15 in 10.0 mi NW 9.2 mph - N/A   Clear